Weather History for St. Augustine, FL

Change the Weather History Date:

Saturday, January 17, 1998

  Actual Average Record
Temperature  
Mean Temperature 52 °F -  
Max Temperature 64 °F 62 °F 80 °F (1974)
Min Temperature 39 °F 44 °F 23 °F (1977)
Degree Days  
Heating Degree Days 14    
Growing Degree Days 2 (Base 50)    
Moisture  
Dew Point 38 °F    
Average Humidity 64    
Maximum Humidity 87    
Minimum Humidity 37    
Precipitation  
Precipitation 0.00 in - - ()
Sea Level Pressure  
Sea Level Pressure 30.06 in    
Wind  
Wind Speed 6 mph (West)    
Max Wind Speed 14 mph    
Max Gust Speed 21 mph    
Visibility 10 miles    
Events      
Averages and records for this station are not official NWS values.
T = Trace of Precipitation, MM = Missing Value Source: NWS Daily Summary

Daily Weather History Graph

Daily Weather History Graph

Search for Another Location

Airport:

Trip Planner

Search our weather history database for the weather conditions in past years. The results will help you decide how hot, cold, wet, or windy it might be!

Date:

Astronomy

Jan. 17, 1998 Rise Set
Actual Time 7:21 AM EST 5:49 PM EST
Civil Twilight 6:55 AM EST 6:15 PM EST
Nautical Twilight 6:26 AM EST 6:44 PM EST
Astronomical Twilight 5:57 AM EST 7:13 PM EST
Moon 10:29 PM EST (1/17) 10:21 AM EST (1/17)
Length of Visible Light 11h 19m
Length of Day
10h 28m
Waning Gibbous, 78% of the Moon is Illuminated
Jan 17
Waning Gibbous
Jan 20
Last Quarter
Jan 28
New
Feb 3
First Quarter
Feb 11
Full

Hourly Weather History & Observations

Time (EST) Temp. Windchill Dew Point Humidity Pressure Visibility Wind Dir Wind Speed Gust Speed Precip Events Conditions
12:17 AM 46.4 °F 45.2 °F 37.4 °F 71% 30.01 in 10.0 mi West 3.5 mph - N/A   Clear
12:37 AM 44.6 °F 43.1 °F 37.4 °F 76% 30.02 in 10.0 mi West 3.5 mph - N/A   Clear
12:57 AM 44.6 °F 42.2 °F 37.4 °F 76% 30.02 in 10.0 mi WNW 4.6 mph - N/A   Clear
1:17 AM 44.6 °F 42.2 °F 37.4 °F 76% 30.02 in 10.0 mi West 4.6 mph - N/A   Clear
1:37 AM 44.6 °F 43.1 °F 37.4 °F 76% 30.02 in 10.0 mi West 3.5 mph - N/A   Clear
1:57 AM 42.8 °F 41.1 °F 37.4 °F 81% 30.03 in 10.0 mi West 3.5 mph - N/A   Clear
2:17 AM 42.8 °F 40.1 °F 37.4 °F 81% 30.03 in 10.0 mi West 4.6 mph - N/A   Clear
2:37 AM 42.8 °F 41.1 °F 37.4 °F 81% 30.02 in 10.0 mi West 3.5 mph - N/A   Clear
2:57 AM 42.8 °F 40.1 °F 37.4 °F 81% 30.03 in 10.0 mi West 4.6 mph - N/A   Clear
3:17 AM 42.8 °F 40.1 °F 37.4 °F 81% 30.02 in 10.0 mi West 4.6 mph - N/A   Clear
3:37 AM 42.8 °F 40.1 °F 37.4 °F 81% 30.03 in 10.0 mi West 4.6 mph - N/A   Clear
3:57 AM 42.8 °F 41.1 °F 37.4 °F 81% 30.03 in 10.0 mi WNW 3.5 mph - N/A   Clear
4:17 AM 42.8 °F 40.1 °F 37.4 °F 81% 30.04 in 10.0 mi West 4.6 mph - N/A   Clear
4:37 AM 42.8 °F 39.3 °F 37.4 °F 81% 30.04 in 10.0 mi West 5.8 mph - N/A   Clear
4:57 AM 42.8 °F 39.3 °F 37.4 °F 81% 30.05 in 10.0 mi West 5.8 mph - N/A   Clear
5:17 AM 42.8 °F 39.3 °F 37.4 °F 81% 30.07 in 10.0 mi WSW 5.8 mph - N/A   Clear
5:37 AM 41.0 °F 38.0 °F 37.4 °F 87% 30.07 in 10.0 mi West 4.6 mph - N/A   Clear
5:57 AM 41.0 °F 37.1 °F 37.4 °F 87% 30.07 in 10.0 mi West 5.8 mph - N/A   Clear
6:17 AM 41.0 °F 37.1 °F 37.4 °F 87% 30.07 in 10.0 mi West 5.8 mph - N/A   Clear
6:37 AM 41.0 °F 37.1 °F 35.6 °F 81% 30.07 in 10.0 mi West 5.8 mph - N/A   Clear
6:57 AM 41.0 °F 39.0 °F 35.6 °F 81% 30.07 in 10.0 mi WSW 3.5 mph - N/A   Clear
7:17 AM 39.2 °F 37.0 °F 35.6 °F 87% 30.08 in 10.0 mi West 3.5 mph - N/A   Clear
7:37 AM 41.0 °F 38.0 °F 35.6 °F 81% 30.08 in 10.0 mi West 4.6 mph - N/A   Clear
7:57 AM 41.0 °F 37.1 °F 37.4 °F 87% 30.08 in 10.0 mi West 5.8 mph - N/A   Clear
8:17 AM 42.8 °F 38.0 °F 37.4 °F 81% 30.09 in 10.0 mi West 8.1 mph - N/A   Clear
8:37 AM 44.6 °F 39.2 °F 37.4 °F 76% 30.10 in 10.0 mi West 10.4 mph - N/A   Clear
8:57 AM 44.6 °F 39.2 °F 37.4 °F 76% 30.10 in 10.0 mi WNW 10.4 mph 16.1 mph N/A   Clear
9:17 AM 46.4 °F 40.7 °F 35.6 °F 66% 30.12 in 10.0 mi West 12.7 mph - N/A   Clear
9:37 AM 48.2 °F - 37.4 °F 66% 30.13 in 10.0 mi WNW 12.7 mph 19.6 mph N/A   Clear
9:57 AM 48.2 °F - 37.4 °F 66% 30.14 in 10.0 mi WNW 10.4 mph 18.4 mph N/A   Clear
10:17 AM 51.8 °F - 37.4 °F 58% 30.14 in 10.0 mi West 12.7 mph 19.6 mph N/A   Clear
10:37 AM 51.8 °F - 35.6 °F 54% 30.13 in 10.0 mi WNW 12.7 mph 18.4 mph N/A   Clear
10:57 AM 51.8 °F - 37.4 °F 58% 30.13 in 10.0 mi West 11.5 mph - N/A   Clear
11:17 AM 51.8 °F - 35.6 °F 54% 30.13 in 10.0 mi West 9.2 mph 16.1 mph N/A   Clear
11:37 AM 53.6 °F - 37.4 °F 54% 30.13 in 10.0 mi West 12.7 mph - N/A   Clear
11:57 AM 55.4 °F - 37.4 °F 51% 30.12 in 10.0 mi West 12.7 mph 16.1 mph N/A   Clear
12:17 PM 55.4 °F - 37.4 °F 51% 30.11 in 10.0 mi West 11.5 mph 17.3 mph N/A   Clear
12:37 PM 57.2 °F - 37.4 °F 48% 30.10 in 10.0 mi WNW 10.4 mph 18.4 mph N/A   Clear
12:57 PM 59.0 °F - 37.4 °F 45% 30.08 in 10.0 mi WNW 9.2 mph 19.6 mph N/A   Clear
1:17 PM 60.8 °F - 37.4 °F 42% 30.07 in 10.0 mi West 11.5 mph - N/A   Clear
1:37 PM 60.8 °F - 37.4 °F 42% 30.07 in 10.0 mi West 11.5 mph 18.4 mph N/A   Clear
1:57 PM 62.6 °F - 37.4 °F 39% 30.07 in 10.0 mi West 9.2 mph 18.4 mph N/A   Clear
2:17 PM 62.6 °F - 37.4 °F 39% 30.06 in 10.0 mi WNW 12.7 mph 18.4 mph N/A   Clear
2:37 PM 62.6 °F - 37.4 °F 39% 30.05 in 10.0 mi WSW 12.7 mph 17.3 mph N/A   Clear
2:57 PM 62.6 °F - 37.4 °F 39% 30.04 in 10.0 mi WNW 11.5 mph 20.7 mph N/A   Clear
3:17 PM 64.4 °F - 37.4 °F 37% 30.03 in 10.0 mi West 9.2 mph - N/A   Clear
3:37 PM 64.4 °F - 39.2 °F 40% 30.02 in 10.0 mi WSW 8.1 mph - N/A   Clear
3:57 PM 64.4 °F - 39.2 °F 40% 30.02 in 10.0 mi WSW 8.1 mph - N/A   Clear
4:17 PM 64.4 °F - 39.2 °F 40% 30.03 in 10.0 mi West 13.8 mph 17.3 mph N/A   Clear
4:37 PM 62.6 °F - 39.2 °F 42% 30.04 in 10.0 mi WSW 10.4 mph - N/A   Clear
4:57 PM 62.6 °F - 41.0 °F 45% 30.04 in 10.0 mi West 9.2 mph - N/A   Clear
5:17 PM 62.6 °F - 41.0 °F 45% 30.04 in 10.0 mi WSW 8.1 mph - N/A   Clear
5:37 PM 60.8 °F - 41.0 °F 48% 30.04 in 10.0 mi SW 6.9 mph - N/A   Clear
5:57 PM 60.8 °F - 41.0 °F 48% 30.04 in 10.0 mi SW 4.6 mph - N/A   Clear
6:17 PM 59.0 °F - 41.0 °F 51% 30.05 in 10.0 mi SW 3.5 mph - N/A   Clear
6:37 PM 57.2 °F - 42.8 °F 59% 30.05 in 10.0 mi SSW 3.5 mph - N/A   Clear
6:57 PM 57.2 °F - 42.8 °F 59% 30.06 in 10.0 mi Calm Calm - N/A   Clear
7:17 PM 55.4 °F - 42.8 °F 63% 30.06 in 10.0 mi WSW 4.6 mph - N/A   Clear
7:37 PM 53.6 °F - 42.8 °F 67% 30.07 in 10.0 mi SW 4.6 mph - N/A   Clear
7:57 PM 53.6 °F - 42.8 °F 67% 30.07 in 10.0 mi WSW 4.6 mph - N/A   Clear
8:17 PM 53.6 °F - 42.8 °F 67% 30.08 in 10.0 mi WSW 4.6 mph - N/A   Clear
8:37 PM 53.6 °F - 42.8 °F 67% 30.09 in 10.0 mi WSW 4.6 mph - N/A   Clear
8:57 PM 53.6 °F - 42.8 °F 67% 30.09 in 10.0 mi WSW 5.8 mph - N/A   Clear
9:17 PM 53.6 °F - 42.8 °F 67% 30.09 in 10.0 mi WSW 5.8 mph - N/A   Clear
9:37 PM 53.6 °F - 42.8 °F 67% 30.10 in 10.0 mi WSW 5.8 mph - N/A   Clear
9:57 PM 53.6 °F - 42.8 °F 67% 30.10 in 10.0 mi WSW 5.8 mph - N/A   Clear
10:17 PM 53.6 °F - 42.8 °F 67% 30.10 in 10.0 mi WSW 4.6 mph - N/A   Clear
10:37 PM 53.6 °F - 42.8 °F 67% 30.09 in 10.0 mi WSW 4.6 mph - N/A   Clear
10:57 PM 51.8 °F - 42.8 °F 71% 30.09 in 10.0 mi SW 5.8 mph - N/A   Clear
11:17 PM 51.8 °F - 44.6 °F 76% 30.10 in 10.0 mi WSW 5.8 mph - N/A   Clear
11:37 PM 51.8 °F - 44.6 °F 76% 30.10 in 10.0 mi WSW 5.8 mph - N/A   Clear
11:57 PM 51.8 °F - 44.6 °F 76% 30.09 in 10.0 mi WSW 5.8 mph - N/A   Clear